This is the latest recevied weather packets stored in our database for station/object YB3RDW-13. If no packets are shown the sender has not sent any weather packets the latest 1 day(s).
| Time | Temp. | Humidity | Pressure | Rain* | Wind** | Luminosity | Snow |
|---|---|---|---|---|---|---|---|
| 1778010719 | 26.67° C | 93% | 1012 hPa | 0 mm | 0.45 m/s, 126° | 0 W/m² | - |
| 1778010417 | 26.67° C | 93% | 1011 hPa | 0 mm | 1.34 m/s, 136° | 0 W/m² | - |
| 1778010118 | 26.67° C | 93% | 1012 hPa | 0 mm | 1.34 m/s, 133° | 0 W/m² | - |
| 1778009818 | 26.67° C | 93% | 1012 hPa | 0 mm | 0.89 m/s, 141° | 0 W/m² | - |
| 1778009518 | 26.67° C | 93% | 1012 hPa | 0 mm | 1.34 m/s, 100° | 0 W/m² | - |
| 1778009218 | 26.67° C | 93% | 1012 hPa | 0 mm | 0.45 m/s, 142° | 0 W/m² | - |
| 1778008917 | 26.67° C | 93% | 1012 hPa | 0 mm | 1.34 m/s, 121° | 0 W/m² | - |
| 1778008617 | 26.67° C | 93% | 1012 hPa | 0 mm | 0.89 m/s, 139° | 0 W/m² | - |
| 1778008318 | 26.67° C | 92% | 1012 hPa | 0 mm | 1.34 m/s, 121° | 0 W/m² | - |
| 1778008019 | 26.67° C | 92% | 1012 hPa | 0 mm | 1.34 m/s, 133° | 0 W/m² | - |
| 1778007717 | 26.67° C | 92% | 1012 hPa | 0 mm | 0.89 m/s, 141° | 0 W/m² | - |
| 1778007418 | 26.67° C | 92% | 1012 hPa | 0 mm | 0.89 m/s, 100° | 0 W/m² | - |
| 1778007117 | 27.22° C | 91% | 1012 hPa | 0 mm | 0.89 m/s, 114° | 0 W/m² | - |
| 1778006817 | 27.22° C | 91% | 1012 hPa | 0 mm | 1.34 m/s, 125° | 0 W/m² | - |
| 1778006518 | 27.22° C | 91% | 1012 hPa | 0 mm | 0.89 m/s, 101° | 0 W/m² | - |
| 1778006218 | 27.22° C | 91% | 1012 hPa | 0 mm | 0.89 m/s, 117° | 0 W/m² | - |
| 1778005917 | 27.22° C | 90% | 1012 hPa | 0 mm | 1.34 m/s, 118° | 0 W/m² | - |
| 1778005619 | 27.22° C | 91% | 1012 hPa | 0 mm | 0 m/s | 0 W/m² | - |
| 1778005318 | 27.78° C | 90% | 1012 hPa | 0 mm | 0.45 m/s, 164° | 0 W/m² | - |
| 1778005019 | 27.78° C | 90% | 1012 hPa | 0 mm | 0 m/s | 0 W/m² | - |
| 1778004717 | 27.78° C | 90% | 1012 hPa | 0 mm | 0.45 m/s, 178° | 0 W/m² | - |
| 1778004417 | 27.78° C | 90% | 1012 hPa | 0 mm | 0.89 m/s, 198° | 0 W/m² | - |
| 1778004118 | 27.78° C | 90% | 1012 hPa | 0 mm | 0.45 m/s, 137° | 0 W/m² | - |
| 1778003818 | 27.78° C | 90% | 1012 hPa | 0 mm | 0.45 m/s, 144° | 0 W/m² | - |
| 1778003518 | 28.33° C | 89% | 1012 hPa | 0 mm | 0.89 m/s, 131° | 0 W/m² | - |
* Rain latest hour (hover to see other rain measurements)
** Current wind speed in m/s (hover to see current wind gust speed)